Location: Jedlicze
(49.7144°N, 21.6472°E)
Time: 05:15:35
(UTC+02:00)

ISS - Visible Passes

Search period start: 28 May 2018 00:00
Search period end: 07 June 2018 00:00
Orbit: 402 x 407 km, 51.6° (Epoch: 28 May)

Date Brightness Start Highest point End Pass type
(mag) Time Alt. Az. Time Alt. Az. Time Alt. Az.
28 May -1.2 01:08:14 10° W 01:08:21 11° W 01:08:21 11° W visible
28 May -3.4 21:02:35 10° W 21:05:50 66° N 21:09:07 10° ENE visible
28 May -3.6 22:39:15 10° WNW 22:42:31 70° N 22:45:04 15° E visible
29 May -2.4 00:15:50 10° W 00:17:42 27° WSW 00:17:42 27° WSW visible
29 May -3.3 21:46:59 10° WNW 21:50:14 61° N 21:53:30 10° E visible
29 May -3.8 23:23:32 10° WNW 23:26:46 59° SSW 23:27:05 55° S visible
30 May -3.9 22:31:16 10° WNW 22:34:33 84° SSW 22:36:31 22° ESE visible
31 May -1.6 00:08:08 10° W 00:09:09 16° WSW 00:09:09 16° WSW visible
31 May -3.7 21:39:00 10° WNW 21:42:17 75° NNE 21:45:34 10° E visible
31 May -3.0 23:15:38 10° W 23:18:34 33° SW 23:18:34 33° SW visible
01 Jun -3.6 22:23:15 10° WNW 22:26:27 51° SSW 22:28:02 25° SE visible
02 Jun -3.8 21:30:57 10° WNW 21:34:14 76° SSW 21:37:30 10° ESE visible
02 Jun -2.0 23:07:59 10° W 23:10:09 18° SW 23:10:09 18° SW visible
03 Jun -2.6 22:15:20 10° W 22:18:12 28° SW 22:19:40 20° S visible
04 Jun -3.2 21:22:52 10° WNW 21:26:02 44° SSW 21:29:09 10° SE visible
05 Jun -1.7 22:07:45 10° W 22:09:47 15° SW 22:11:24 12° S visible
